Terminal Aerodrome Forecast
Issued by NWS

Home | Current Version | Previous Version | Text Only | Print | Product List | Glossary On
Versions: 1 2 3 4 5 6 7 8 9 10 11 12 13 14 15 16 17 18
469
FTUS46 KSEW 112115 AAA
TAFBFI
TAF AMD
KBFI 112115Z 1121/1218 35005KT P6SM BKN070 OVC080
     FM112300 02003KT P6SM -RA OVC050
     FM120400 14006KT 6SM -RA OVC040
     FM121200 17008KT 6SM -RA OVC030=

USA.gov is the U.S. government's official web portal to all federal, state and local government web resources and services.